Regional Weather Roundup
Issued by NWS

Home | Current Version | Previous Version | Text Only | Print | Product List | Glossary Off
Versions: 1 2 3 4 5 6 7 8 9 10 11 12 13 14 15 16 17 18 19 20 21 22 23 24 25 26 27 28 29 30 31 32 33 34 35 36 37 38 39 40 41 42 43 44 45 46 47 48 49 50

937
ASUS43 KMKX 160800
RWRWI

WISCONSIN REGIONAL WEATHER ROUNDUP
NATIONAL WEATHER SERVICE MILWAUKEE/SULLIVAN WI
200 AM CST SAT DEC 16 2017

NOTE: "FAIR" INDICATES FEW OR NO CLOUDS BELOW 12,000 FEET WITH NO
SIGNIFICANT WEATHER AND/OR OBSTRUCTIONS TO VISIBILITY.

WIZ001-002-006>008-014>016-023>028-160900-
NORTHWEST WISCONSIN

CITY           SKY/WX    TMP DP  RH WIND       PRES   REMARKS
SUPERIOR ARPT  CLOUDY    16  13  89 E3        29.80R
ASHLAND        CLOUDY     9   4  80 CALM      29.81R
HAYWARD        LGT SNOW  16  11  80 E5        29.75R WCI   9
SIREN          LGT SNOW  19  17  90 E3        29.73R
CUMBERLAND     LGT SNOW  19  16  86 E8        29.71R WCI   9
RICE LAKE      LGT SNOW  20  18  91 CALM      29.74R
CHETEK         CLOUDY    19  17  90 E5        29.73R WCI  12
LADYSMITH      LGT SNOW  18  15  88 E7        29.76R WCI   9
EAU CLAIRE     NOT AVBL
MENOMONIE      CLOUDY    25  23  93 E6        29.72R WCI  18
NEW RICHMOND   LGT SNOW  24  21  89 E7        29.69S WCI  16
OSCEOLA        LGT SNOW  25  23  93 E8        29.72S WCI  16
$$

WIZ003>005-009-010-017-018-160900-
NORTH CENTRAL WISCONSIN

CITY           SKY/WX    TMP DP  RH WIND       PRES   REMARKS
MANITOWISH WTR CLOUDY     8   6  89 CALM      29.75R
ARBOR VITAE    CLOUDY    11   7  83 CALM      29.75R
WOODRUFF       CLOUDY    11   7  83 CALM      29.75R
RHINELANDER    CLOUDY    10   6  84 E8        29.76R WCI  -2
EAGLE RIVER    CLOUDY    10   4  77 SE3       29.76R
LAND O LAKES   CLOUDY     9   6  86 CALM      29.78R
PHILLIPS       LGT SNOW  13  10  87 E5        29.75R WCI   5
TOMAHAWK       CLOUDY    11   8  87 CALM      29.76R FOG
MEDFORD        LGT SNOW  15  13  88 E6        29.72S WCI   7
MERRILL        LGT SNOW  14  10  87 E3        29.78R
$$

WIZ029-030-035-036-043>047-160900-
CENTRAL WISCONSIN

CITY           SKY/WX    TMP DP  RH WIND       PRES   REMARKS
WAUSAU         LGT SNOW  15  12  88 E7        29.76R FOG     WCI   5
MOSINEE        LGT SNOW  18  16  93 E7        29.76S WCI   8
MARSHFIELD     LGT SNOW  19  17  92 E8        29.73R VSB 1   WCI   9
STEVENS POINT  LGT SNOW  16  15  95 E6        29.78S WCI   8
WAUPACA        LGT SNOW  20  16  85 CALM      29.81S
WAUTOMA        LGT SNOW  20  17  88 E7        29.80R FOG     WCI  11
WISC RAPIDS    LGT SNOW  21  17  84 E6        29.78R FOG     WCI  13
CAMP DOUGLAS   NOT AVBL
$$

WIZ011>013-019>022-031-037>040-048>050-160900-
NORTHEAST WISCONSIN

CITY           SKY/WX    TMP DP  RH WIND       PRES   REMARKS
ANTIGO         CLOUDY    11   7  84 E6        29.77R FOG     WCI   2
SHAWANO        LGT SNOW  16  12  84 CALM      29.84R
OCONTO         CLOUDY    12   8  81 CALM      29.86R
STURGEON BAY   CLOUDY    18  10  71 N6        29.85S WCI  10
GREEN BAY      LGT SNOW  17  12  80 NE6       29.84S WCI   9
MANITOWOC      LGT SNOW  16  14  92 N3        29.85S FOG
APPLETON       LGT SNOW  18  12  79 NE8       29.79F WCI   7
CLINTONVILLE   NOT AVBL
OSHKOSH        LGT SNOW  20  18  92 NE7       29.80S FOG     WCI  11
$$

WIZ032>034-041-042-053>061-160900-
SOUTHWEST WISCONSIN

CITY           SKY/WX    TMP DP  RH WIND       PRES   REMARKS
LA CROSSE      CLOUDY    32  28  85 E9        29.70F WCI  24
SPARTA         CLOUDY    28  28  96 E3        29.74S
VIROQUA        CLOUDY    30  28  93 CALM      29.70S
BOSCOBEL       CLOUDY    30  27  88 CALM      29.74F
PRAIRIE DU CHI CLOUDY    37  22  54 S5        29.73F WCI  33
PLATTEVILLE    CLOUDY    33  25  73 S8        29.76F WCI  26
$$

WIZ056-057-062-063-064-067-068-160900-
SOUTH CENTRAL WISCONSIN

CITY           SKY/WX    TMP DP  RH WIND       PRES   REMARKS
REEDSBURG      CLOUDY    29  28  98 CALM      29.74S
BARABOO/DELLS  CLOUDY    28  26  92 CALM      29.75R
LONE ROCK      NOT AVBL
MINERAL POINT  PTCLDY    36  27  69 S9        29.75S WCI  29
MADISON        CLOUDY    33  24  69 S5        29.78S WCI  29
MIDDLETON      CLOUDY    36  24  64 SW6       29.76S WCI  31
WATERTOWN      CLOUDY    29  28  96 E3        29.78S
MONROE         CLOUDY    32  23  69 S13       29.77S WCI  22
JANESVILLE     CLOUDY    36  23  60 SW7       29.79S WCI  30
$$

WIZ051-052-058>065-066-070>072-160900-
SOUTHEAST WISCONSIN

CITY           SKY/WX    TMP DP  RH WIND       PRES   REMARKS
MILWAUKEE      CLOUDY    31  27  85 CALM      29.81S
WAUKESHA       CLOUDY    30  25  80 S3        29.80S
MILWAUKEE/TIMM CLOUDY    30  27  86 CALM      29.81F
RACINE         CLOUDY    34  25  69 SW8       29.83S WCI  27
BURLINGTON     PTCLDY    33  26  73 SW9       29.80F WCI  26
KENOSHA        CLOUDY    36  23  59 SW9       29.82S WCI  29
FOND DU LAC    LGT SNOW  24  20  84 NE6       29.80S FOG     WCI  17
SHEBOYGAN      LGT SNOW  20  18  92 NE5       29.82S FOG     WCI  13
WEST BEND      CLOUDY    25  23  93 E3        29.80S
JUNEAU         CLOUDY    28  27  98 E5        29.78S WCI  22
$$

LSZ147-162-160900-
LAKE SUPERIOR

STATION/POSITION TIME  TEMP    WIND        PRES    WAVE
                       AIR SEA DIR/SP/G            HT/PER
                 (UTC) (F)     (DEG/KT/KT) (MB)    (FT/S)
DEVILS ISLAND    0700   20     120/  6/  9 1010.7R
SAXON HARBOR     0740   14                 1009.8R
$$

LMZ867-665-643>646-160900-
LAKE MICHIGAN

STATION/POSITION TIME  TEMP    WIND        PRES    WAVE
                       AIR SEA DIR/SP/G            HT/PER
                 (UTC) (F)     (DEG/KT/KT) (MB)    (FT/S)
NORTHPORT PIER   0740   20     330/  2/  8 1010.8S
KEWAUNEE LAKESHO 0730   16     320/  2/  3 1010.1S
SHEBOYGAN LAKESH 0700   24      20/  7/  8 1011.0F
PORT WASHINGTON  0730   26     330/  1/  3 1010.8F
MILWAUKEE LAKESH 0730   32     170/  3/  4   N/A
KENOSHA   LAKESH 0700   37     220/  9/ 17 1010.2
$$

TC  - TEMPERATURE IN CELSIUS
VSB - VISIBILITY IN STATUTE MILES
WCI - WIND CHILL INDEX
HX  - HEAT INDEX





USA.gov is the U.S. government's official web portal to all federal, state and local government web resources and services.